sat.trackr.live / text

‹ back to catalog

STARLINK-4743

NORAD 53787 · 2022-111Q

PAYLOAD ACTIVE UNKNOWN

§ Identity

Operator
Country
US
Launch date
2022-09-11
Launch site
AFETR
Launch vehicle
Mass (kg)
RCS (m²)

Purposes: comms

External: N2YO · Heavens-Above · Gunter

§ Orbital elements

Epoch: 2026-09-20T06:52:44.293728Z

Period
94.01 min
Inclination
53.1592°
Eccentricity
0.0001321
Mean motion
15.31696275 rev/d
Perigee alt
469.8 km
Apogee alt
471.7 km
Semi-major
6,848.9 km
B*
2.3821e-5
RAAN
107.2686°
Arg perigee
89.5169°
Mean anomaly
270.5984°
Rev number
22,325

§ Raw data

STARLINK-47431 53787U 22111Q   26263.28662377  .00000374  00000+0  23821-4 0  99902 53787  53.1592 107.2686 0001321  89.5169 270.5984 15.31696275223256

JSON: /api/v1/satellites/53787 · /tle

For live sub-satellite position, see the globe view (requires WebGL).

§ Visibility from observer

Set your observer location to see the next 7 days of passes ≥ 10°. The values pass through the URL so the page stays shareable.

No JS? Fill the form by hand. The geolocation button needs JavaScript.